Regional Weather Roundup
Issued by NWS Green Bay, WI

Home | Current Version | Previous Version | Graphics & Text | Print | Product List | Glossary Off
Versions: 1 2 3 4 5 6 7 8 9 10 11 12 13 14 15 16 17 18 19 20 21 22 23 24 25 26 27 28 29 30 31 32 33 34 35 36 37 38 39 40 41 42 43 44 45 46 47 48 49 50

000
ASUS43 KGRB 271410
RWRGRB

NORTH-CENTRAL AND NORTHEAST WISCONSIN REGIONAL WEATHER ROUNDUP
NATIONAL WEATHER SERVICE GREEN BAY WI
900 AM CDT FRI MAR 27 2015

WIZ005-009-010>012-018-019-271500-
NORTH CENTRAL WISCONSIN

CITY           SKY/WX    TMP DP  RH WIND       PRES   REMARKS
IRONWOOD       CLOUDY    18   9  68 N8        30.21S WCI   7
MANITOWISH WTR MOSUNNY   15   6  67 N8        30.19S WCI   3
ARBOR VITAE    SUNNY     14  11  88 N8        30.19R WCI   3
EAGLE RIVER    SUNNY     11   5  76 N5        30.19R WCI   3
LAND O LAKES   SUNNY     13   5  70 N6        30.20R WCI   4
RHINELANDER    MOSUNNY   13   6  74 NE8       30.19R WCI   2
PHILLIPS       MOSUNNY   16   8  71 NW5       30.21R WCI   8
ANTIGO         SUNNY     13   6  73 N8        30.18S WCI   2
TOMAHAWK       SUNNY     15  11  85 N5        30.21R WCI   7
MERRILL        MOSUNNY   16  10  77 N5        30.20F WCI   9
$$

WIZ013-073-271500-
NORTHEAST WISCONSIN

CITY           SKY/WX    TMP DP  RH WIND       PRES   REMARKS
IRON MOUNTAIN  SUNNY     13   3  64 N9        30.19R WCI   1
MARINETTE      MOSUNNY   16   7  67 NE12G20   30.22R WCI   3
OCONTO         SUNNY     18   8  64 N10G17    30.22R WCI   6
$$

WIZ017-030-035>037-045-271500-
CENTRAL WISCONSIN

CITY           SKY/WX    TMP DP  RH WIND       PRES   REMARKS
MEDFORD        SUNNY     15   8  73 W6        30.20S WCI   7
WAUSAU         PTSUNNY   17   7  64 N8        30.20R WCI   7
MOSINEE        PTSUNNY   18   9  68 NE12G18   30.22R WCI   5
MARSHFIELD     SUNNY     20   5  52 VRB5      30.22R
WISC RAPIDS    SUNNY     21   3  45 N10       30.25R WCI  10
STEVENS POINT  MOSUNNY   17   4  59 NE13G18   30.23S WCI   3
WAUPACA        SUNNY     22   5  47 N12G17    30.23R
SHAWANO        SUNNY     20   8  58 N8        30.23S
CLINTONVILLE   SUNNY     19   7  58 N12       30.23R WCI   7
$$

WIZ038-039-048-051-271500-
FOX VALLEY

CITY           SKY/WX    TMP DP  RH WIND       PRES   REMARKS
NWS GREEN BAY  SUNNY     21  10  62 N15       30.22R WCI   8
APPLETON       MOSUNNY   45   7  21 N14       30.20S
OSHKOSH        SUNNY     21   7  54 N16       30.21R WCI   7
FOND DU LAC    SUNNY     22   7  52 N13G22    30.21R WCI  10
$$

WIZ022-050-052-271500-
EAST CENTRAL WISCONSIN

CITY           SKY/WX    TMP DP  RH WIND       PRES   REMARKS
STURGEON BAY   CLOUDY    18  10  73 N16G22    30.22R WCI   3
MANITOWOC      SUNNY     21  10  62 N15       30.19S WCI   8
SHEBOYGAN      PTSUNNY   22   9  57 N14G21    30.18S WCI   9
$$

LMZ563-521-522-541>543-271500-
LAKESHORE

STATION/POSITION TIME  TEMP    WIND        PRES    VSBY  WAVE
                       AIR SEA DIR/SP/G                  HT/PER
                 (UTC) (F)     (DEG/KT/KT) (MB)    (MI)  (FT/S)
SHEBOYGAN LKSHOR 1400   20     340/ 20/ 22 1023.5R
KEWAUNEE LKSHORE 1400   19     340/ 11/ 15 1021.6F
NORTHPORT PIER   1400   15     360/ 21/ 24 1023.0S
SISTER BAY LKSHO 1400   20      30/ 14/ 20   N/A
CHAMBERS ISLAND  1400   16     340/ 17/ 20 1023.4R
MENOMINEE LKSHOR 1400   15     360/ 11     1023.9R
$$



USA.gov is the U.S. government's official web portal to all federal, state and local government web resources and services.